Preview of NWS' New Version of Forecast
This preview is not operational and should not be used for support decisions.

Regional Weather Roundup (RWR)

Issued by National Weather Service (NWS)

                            
000
ASUS45 KCYS 251510
RWRWY 

WYOMING REGIONAL WEATHER ROUNDUP
NATIONAL WEATHER SERVICE CHEYENNE WY
900 AM MDT SUN AUG 25 2019

NOTE:  "FAIR" INDICATES FEW OR NO CLOUDS BELOW 12,000 FEET
WITH NO SIGNIFICANT WEATHER AND/OR OBSTRUCTIONS TO VISIBILITY.

WYZ001-251600-
YELLOWSTONE NATIONAL PARK
  
CITY           SKY/WX    TMP DP  RH WIND       PRES   REMARKS
LK YELLOWSTONE   N/A     60  35  39 MISG      30.17S                  
W YELLOWSTONE  NOT AVBL                                               

$$
WYZ002>013-054>058-071-098>099-251600-
NORTHERN WYOMING
  
CITY           SKY/WX    TMP DP  RH WIND       PRES   REMARKS
JACKSON        FAIR      67  37  33 SW9       30.10S                  
CODY           FAIR      65  47  52 NE9       30.00S                  
GREYBULL       FAIR      70  48  45 CALM      29.88R                  
WORLAND        FAIR      70  49  47 SW5       29.92R                  
SHERIDAN       FAIR      69  54  58 CALM      29.93R                  
BUFFALO        FAIR      67  51  56 NW5       29.98                   
GILLETTE       FAIR      67  54  63 N6        29.91R                  
HULETT         FAIR      66  59  77 CALM      29.90                   
NEWCASTLE      FAIR      66  50  55 W5        29.90                   

$$
WYZ014>020-022>026-101>103-251600-
CENTRAL WYOMING
  
CITY           SKY/WX    TMP DP  RH WIND       PRES   REMARKS
BIG PINEY      FAIR      60  34  37 VRB5      30.16S                  
PINEDALE       FAIR      59  36  41 NW3       30.18                   
DUBOIS         FAIR      64  32  29 NW10      30.11                   
LANDER         FAIR      73  42  32 E7        30.02S                  
RIVERTON       FAIR      75  42  30 N8        30.01R                  
CASPER         FAIR      72  41  32 N10       29.97R                  
DOUGLAS        FAIR      68  48  48 NW7       29.93S                  

$$
WYZ021-027>030-104>119-251600-
SOUTHERN WYOMING
  
CITY           SKY/WX    TMP DP  RH WIND       PRES   REMARKS
EVANSTON       FAIR      69  35  28 W13G18    30.22R                  
KEMMERER       FAIR      66  30  26 W14       30.21                   
ROCK SPRINGS   FAIR      70  32  24 W12       30.16R                  
DIXON          FAIR      61  34  36 SE12      30.19S                  
RAWLINS        FAIR      71  31  22 W16       30.14R                  
SARATOGA       FAIR      68  34  28 W10G16    30.17S                  
LARAMIE        FAIR      73  30  20 W13       30.13S                  
CHEYENNE       FAIR      78  33  19 W17       30.04S                  
TORRINGTON     CLOUDY    60  60 100 VRB3      29.88S FOG              
PINE BLUFFS    FAIR      72  43  35 N3        29.97S                  

$$
  

000
ASUS45 KCYS 251510
RWRWY 

WYOMING REGIONAL WEATHER ROUNDUP
NATIONAL WEATHER SERVICE CHEYENNE WY
900 AM MDT SUN AUG 25 2019

NOTE:  "FAIR" INDICATES FEW OR NO CLOUDS BELOW 12,000 FEET
WITH NO SIGNIFICANT WEATHER AND/OR OBSTRUCTIONS TO VISIBILITY.

WYZ001-251600-
...YELLOWSTONE NATIONAL PARK...
  
CITY           SKY/WX    TMP DP  RH WIND       PRES   REMARKS
LK YELLOWSTONE   N/A     60  35  39 MISG      30.17S                  
W YELLOWSTONE  NOT AVBL                                               

$$
WYZ002>013-054>058-071-098>099-251600-
...NORTHERN WYOMING...
  
CITY           SKY/WX    TMP DP  RH WIND       PRES   REMARKS
JACKSON        SUNNY     67  37  33 SW9       30.10S                  
CODY           SUNNY     65  47  52 NE9       30.00S                  
GREYBULL       SUNNY     70  48  45 CALM      29.88R                  
WORLAND        SUNNY     70  49  47 SW5       29.92R                  
SHERIDAN       MOSUNNY   69  54  58 CALM      29.93R                  
BUFFALO        SUNNY     67  51  56 NW5       29.98                   
GILLETTE       SUNNY     67  54  63 N6        29.91R                  
HULETT         FAIR      66  59  77 CALM      29.90S                  
NEWCASTLE      FAIR      66  50  55 W5        29.90R                  

$$
WYZ014>020-022>026-101>103-251600-
...CENTRAL WYOMING...
  
CITY           SKY/WX    TMP DP  RH WIND       PRES   REMARKS
BIG PINEY      SUNNY     60  34  37 VRB5      30.16S                  
PINEDALE       SUNNY     59  36  41 NW3       30.18S                  
DUBOIS         FAIR      64  32  29 NW10      30.11S                  
LANDER         SUNNY     73  42  32 E7        30.02S                  
RIVERTON       SUNNY     75  42  30 N8        30.01R                  
CASPER         MOSUNNY   72  41  32 N10       29.97R                  
DOUGLAS        SUNNY     68  48  48 NW7       29.93S                  

$$
WYZ021-027>030-104>119-251600-
...SOUTHERN WYOMING...
  
CITY           SKY/WX    TMP DP  RH WIND       PRES   REMARKS
EVANSTON       SUNNY     69  35  28 W13G18    30.22R                  
KEMMERER       SUNNY     66  30  26 W14       30.21R                  
FORT BRIDGER   NOT AVBL                                               
ROCK SPRINGS   SUNNY     70  32  24 W12       30.16R                  
DIXON          FAIR      61  34  36 SE12      30.19S                  
RAWLINS        SUNNY     71  31  22 W16       30.14R                  
SARATOGA       FAIR      68  34  28 W10G16    30.17S                  
LARAMIE        SUNNY     73  30  20 W13       30.13S                  
CHEYENNE       SUNNY     78  33  19 W17       30.04S                  
TORRINGTON     CLOUDY    60  60 100 VRB3      29.88S FOG              
PINE BLUFFS    FAIR      72  43  35 N3        29.97S                  

$$